Bangor, ME

4:47 PM EDT on August 21, 2017 (GMT -0400)
Bangor International

Weather History for KBGR - June, 2013

Change the Weather History Date:

Thursday, June 13, 2013

  Actual Average Record
Temperature  
Mean Temperature 62 °F 63 °F  
Max Temperature 72 °F 74 °F 91 °F (1984)
Min Temperature 51 °F 51 °F 39 °F (1976)
Degree Days  
Heating Degree Days 3 4  
Month to date heating degree days 68 68  
Since 1 June heating degree days 68 68  
Since 1 July heating degree days 7518 7821  
Cooling Degree Days 0 1  
Month to date cooling degree days 22 13  
Year to date cooling degree days 30 19  
Since 1 June cooling degree days 22 13  
Growing Degree Days 10 (Base 50)    
Moisture  
Dew Point 49 °F    
Average Humidity 72    
Maximum Humidity 100    
Minimum Humidity 44    
Precipitation  
Precipitation 0.05 in 0.13 in 1.19 in (1975)
Month to date precipitation 3.30 1.73  
Year to date precipitation 14.59 17.78  
Snow  
Snow 0.00 in 0.00 in 0.00 in (2002)
Month to date snowfall 0.0 0.0  
Since 1 June snowfall 0.0 0.0  
Since 1 July snowfall 74.3 66.1  
Snow Depth 0.00 in    
Sea Level Pressure  
Sea Level Pressure 29.75 in    
Wind  
Wind Speed 7 mph (ENE)    
Max Wind Speed 16 mph    
Max Gust Speed 21 mph    
Visibility 10 miles    
Events Rain    
T = Trace of Precipitation, MM = Missing Value Source: NWS Daily Summary

Daily Weather History Graph

Daily Weather History Graph

Search for Another Location

Airport or City:

Trip Planner

Search our weather history database for the weather conditions in past years. The results will help you decide how hot, cold, wet, or windy it might be!

Date:

Astronomy

Jun. 13, 2013 Rise Set
Actual Time 4:48 AM EDT 8:22 PM EDT
Civil Twilight 4:11 AM EDT 8:59 PM EDT
Nautical Twilight 3:22 AM EDT 9:48 PM EDT
Astronomical Twilight 2:18 AM EDT 10:52 PM EDT
Moon 9:31 AM EDT (6/13) 11:15 PM EDT (6/13)
Length of Visible Light 16h 47m
Length of Day
15h 33m
Waxing Crescent, 21% of the Moon is Illuminated
Jun 13
Waxing Crescent
Jun 16
First Quarter
Jun 23
Full
Jun 30
Last Quarter
Jul 8
New

Hourly Weather History & Observations

Time (EDT) Temp. Dew Point Humidity Pressure Visibility Wind Dir Wind Speed Gust Speed Precip Events Conditions
12:53 AM 53.1 °F 50.0 °F 89% 29.74 in 8.0 mi North 16.1 mph - 0.03 in Rain Light Rain
1:53 AM 52.0 °F 50.0 °F 93% 29.74 in 10.0 mi NNE 3.5 mph - 0.03 in Rain Light Rain
2:53 AM 52.0 °F 50.0 °F 93% 29.73 in 10.0 mi Calm Calm - 0.02 in Rain Light Rain
3:53 AM 51.1 °F 51.1 °F 100% 29.73 in 10.0 mi Calm Calm - 0.00 in   Overcast
4:53 AM 51.1 °F 50.0 °F 96% 29.75 in 10.0 mi West 3.5 mph - N/A   Mostly Cloudy
5:53 AM 52.0 °F 51.1 °F 97% 29.78 in 10.0 mi Calm Calm - N/A   Mostly Cloudy
6:53 AM 55.9 °F 48.9 °F 77% 29.78 in 10.0 mi NNE 8.1 mph - N/A   Mostly Cloudy
7:53 AM 57.9 °F 48.0 °F 70% 29.78 in 10.0 mi NNE 9.2 mph - N/A   Mostly Cloudy
8:53 AM 57.9 °F 44.1 °F 60% 29.78 in 10.0 mi North 12.7 mph 18.4 mph N/A   Scattered Clouds
9:53 AM 62.1 °F 46.0 °F 56% 29.77 in 10.0 mi North 10.4 mph - N/A   Scattered Clouds
10:53 AM 64.0 °F 48.0 °F 56% 29.78 in 10.0 mi North 4.6 mph - N/A   Scattered Clouds
11:53 AM 66.0 °F 48.9 °F 54% 29.77 in 10.0 mi NNW 6.9 mph - N/A   Scattered Clouds
12:53 PM 68.0 °F 48.9 °F 50% 29.75 in 10.0 mi Calm Calm - N/A   Scattered Clouds
1:53 PM 68.0 °F 48.0 °F 49% 29.75 in 10.0 mi Variable 5.8 mph - N/A   Scattered Clouds
2:53 PM 68.0 °F 46.9 °F 47% 29.73 in 10.0 mi SSE 4.6 mph - N/A   Mostly Cloudy
3:53 PM 69.1 °F 46.9 °F 45% 29.72 in 10.0 mi Calm Calm - N/A   Mostly Cloudy
4:53 PM 69.1 °F 48.0 °F 47% 29.71 in 10.0 mi Calm Calm - N/A   Overcast
5:53 PM 64.9 °F 52.0 °F 63% 29.73 in 10.0 mi South 10.4 mph - N/A   Overcast
6:53 PM 61.0 °F 50.0 °F 67% 29.74 in 10.0 mi SE 8.1 mph - N/A   Overcast
7:53 PM 60.1 °F 50.0 °F 69% 29.75 in 10.0 mi SSE 9.2 mph - N/A   Overcast
8:53 PM 59.0 °F 48.9 °F 69% 29.77 in 10.0 mi South 6.9 mph - N/A   Overcast
9:53 PM 57.0 °F 48.9 °F 74% 29.78 in 10.0 mi South 5.8 mph - N/A   Overcast
10:53 PM 55.0 °F 48.9 °F 80% 29.76 in 10.0 mi South 3.5 mph - N/A   Mostly Cloudy
11:53 PM 55.0 °F 50.0 °F 83% 29.74 in 10.0 mi Calm Calm - N/A   Overcast